User: anonymous   Login
Location: Caltech
(34.1382°N, 118.1253°W)
Time: 10:54:05
(UTC-08:00)
Language:

AO-Echo - Orbit

View from above orbital plane
View from above orbital plane
View from above satellite
View from above satellite

Ground track
Ground track

The orbit data is extracted from the following two-line orbital elements,

1 28375U 04025K   15026.51268299  .00000208  00000-0  74360-4 0   470
2 28375 098.2788 331.1465 0083467 038.3294 322.3787 14.41561524556088
Epoch (UTC): 26 January 2015 12:18:15
Eccentricity: 0.0083467
inclination: 98.2788°
perigee height: 694 km
apogee height: 813 km
right ascension of ascending node: 331.1465°
argument of perigee: 38.3294°
revolutions per day: 14.41561524
mean anomaly at epoch: 322.3787°
orbit number at epoch: 55608

The dashed part of the orbit path shows where the satellite is in the earth's shadow,  

DLR